Overview Statistics Trail Chart Weather Telemetry Raw packets
 

This is the latest recevied weather packets stored in our database for station/object IW2NIA-3. If no packets are shown the sender has not sent any weather packets the latest 10 day(s).

<< 35 36 37 38 39 >>
Time Temp. Humidity Pressure Rain* Wind** Luminosity Snow
1787828624 28.33° C 69% 1017.2 hPa 0 mm - - -
1787827720 27.78° C 68% 1017.2 hPa 0 mm - - -
1787826813 27.78° C 71% 1017 hPa 0 mm - - -
1787825927 27.22° C 70% 1017.1 hPa 0 mm - - -
1787825026 27.22° C 72% 1017.1 hPa 0 mm - - -
1787824118 27.22° C 71% 1017.1 hPa 0 mm - - -
1787823220 26.67° C 72% 1017.2 hPa 0 mm - - -
1787822310 26.67° C 72% 1017.1 hPa 0 mm - - -
1787821428 26.11° C 74% 1017.4 hPa 0 mm - - -
1787820527 26.11° C 75% 1017.6 hPa 0 mm - - -
1787819617 25.56° C 75% 1017.8 hPa 0 mm - - -
1787818709 25.56° C 77% 1017.4 hPa 0 mm - - -
1787817824 25.56° C 75% 1017.6 hPa 0 mm - - -
1787816916 25° C 75% 1017.5 hPa 0 mm - - -
1787816019 25° C 75% 1017.8 hPa 0 mm - - -
1787815108 25° C 77% 1017.4 hPa 0 mm - - -
1787814222 24.44° C 80% 1017.2 hPa 0 mm - - -
1787813321 23.89° C 81% 1017 hPa 0 mm - - -
1787812412 23.33° C 82% 1017 hPa 0 mm - - -
1787811523 22.78° C 84% 1016.8 hPa 0 mm - - -
1787810615 22.22° C 86% 1016.7 hPa 0 mm - - -
1787809715 21.67° C 87% 1016.9 hPa 0 mm - - -
1787808809 21.67° C 87% 1017.1 hPa 0 mm - - -
1787807920 21.11° C 88% 1017.1 hPa 0 mm - - -
1787807015 21.11° C 88% 1017.1 hPa 0 mm - - -

* Rain latest hour (hover to see other rain measurements)
** Current wind speed in m/s (hover to see current wind gust speed)